CW8809 Weather Reports


Display with metric or nautical units.
time (UTC)temp
F
wind
direction
speed
MPH
gust
MPH
rain 1hr
in
rain 24hr
in
rain mn
in
humidity
%
barometer
mb
20180625022354 49 225 3.0 7.0 0.00 0.00 0.00 53 1024.2
20180625021352 48 180 7.0 7.0 0.00 0.00 0.00 54 1024.2
20180625020350 48 171 2.0 5.0 0.00 0.00 0.00 53 1024.5
20180625015348 48 202 1.0 4.0 0.00 0.00 0.00 56 1024.9
20180625014346 47 135 3.0 3.0 0.00 0.00 0.00 57 1024.8
20180625013344 46 157 3.0 3.0 0.00 0.00 0.00 57 1024.8
20180625012342 46 157 0.0 4.0 0.00 0.00 0.00 57 1025.1
20180625011340 45 180 1.0 4.0 0.00 0.00 0.00 59 1025.0
20180625010338 44 112 5.0 5.0 0.00 0.00 0.00 58 1025.0
20180625005336 43 22 5.0 5.0 0.00 0.00 0.00 59 1025.3
20180625004334 42 22 4.0 4.0 0.00 0.00 0.00 62 1025.2
20180625003331 42 67 0.0 4.0 0.00 0.00 0.00 64 1025.5
20180625002329 41 45 0.0 1.0 0.00 0.00 0.00 65 1025.5
20180625001327 40 45 0.0 3.0 0.00 0.00 0.00 68 1025.4
20180625000325 39 157 2.0 3.0 0.00 0.00 0.00 71 1025.4
20180624235324 38 90 0.0 2.0 0.00 0.00 0.00 74 1025.4
20180624234322 36 112 0.0 1.0 0.00 0.00 0.00 76 1025.3
20180624233319 35 135 0.0 0.0 0.00 0.00 0.00 77 1025.2
20180624232318 34 112 0.0 2.0 0.00 0.00 0.00 82 1025.1
20180624231316 33 112 0.0 3.0 0.00 0.00 0.00 84 1025.0
20180624230314 32 90 3.0 3.0 0.00 0.00 0.00 86 1024.9
20180624225312 30 135 0.0 1.0 0.00 0.00 0.00 87 1024.5
20180624224309 30 112 0.0 0.0 0.00 0.00 0.00 88 1024.5
20180624223308 29 67 0.0 0.0 0.00 0.00 0.00 88 1024.4
20180624222306 28 45 0.0 0.0 0.00 0.00 0.00 89 1024.3
20180624221304 27 67 0.0 0.0 0.00 0.00 0.00 88 1024.2
20180624220302 27 45 0.0 0.0 0.00 0.00 0.00 88 1024.3
20180624215300 26 45 0.0 0.0 0.00 0.00 0.00 88 1023.9
20180624214258 25 45 0.0 0.0 0.00 0.00 0.00 87 1023.9
20180624213255 25 45 0.0 0.0 0.00 0.00 0.00 87 1023.9
20180624212253 25 45 0.0 0.0 0.00 0.00 0.00 87 1023.6
20180624211251 25 45 0.0 0.0 0.00 0.00 0.00 86 1023.7
20180624210249 25 45 0.0 0.0 0.00 0.00 0.00 86 1023.7
20180624205247 26 45 0.0 0.0 0.00 0.00 0.00 86 1023.4
20180624204245 26 45 0.0 0.0 0.00 0.00 0.00 87 1023.4
20180624203243 26 45 0.0 0.0 0.00 0.00 0.00 87 1023.2
20180624202242 27 45 0.0 0.0 0.00 0.00 0.00 87 1023.3
20180624201240 27 45 0.0 0.0 0.00 0.00 0.00 87 1023.1
20180624200238 27 45 0.0 0.0 0.00 0.00 0.00 87 1023.1
20180624195236 27 45 0.0 0.0 0.00 0.00 0.00 87 1023.2
20180624194234 27 45 0.0 0.0 0.00 0.00 0.00 86 1023.2
20180624193232 27 45 0.0 0.0 0.00 0.00 0.00 86 1023.2
20180624192230 28 45 0.0 0.0 0.00 0.00 0.00 86 1023.0
20180624191228 28 45 0.0 0.0 0.00 0.00 0.00 86 1023.0
20180624190225 28 45 0.0 0.0 0.00 0.00 0.00 86 1022.8
20180624185223 28 45 0.0 0.0 0.00 0.00 0.00 87 1022.8
20180624184221 28 45 0.0 0.0 0.00 0.00 0.00 87 1022.9
20180624183219 28 45 0.0 0.0 0.00 0.00 0.00 85 1022.9
20180624182218 28 45 0.0 0.0 0.00 0.00 0.00 85 1023.0
20180624181215 28 45 0.0 0.0 0.00 0.00 0.00 86 1023.0
20180624180213 28 45 0.0 0.0 0.00 0.00 0.00 86 1023.1
20180624175212 29 45 0.0 0.0 0.00 0.00 0.00 86 1023.2
20180624174210 29 45 0.0 0.0 0.00 0.00 0.00 86 1023.2
20180624173208 29 45 0.0 0.0 0.00 0.00 0.00 86 1023.2
20180624172206 28 45 0.0 0.0 0.00 0.00 0.00 86 1022.9
20180624171204 28 67 0.0 0.0 0.00 0.00 0.00 85 1022.9
20180624170202 28 67 0.0 0.0 0.00 0.00 0.00 85 1022.9
20180624165200 29 67 0.0 0.0 0.00 0.00 0.00 84 1023.3
20180624164158 29 67 0.0 0.0 0.00 0.00 0.00 85 1023.3
20180624163156 29 67 0.0 0.0 0.00 0.00 0.00 85 1023.4
20180624162153 29 67 0.0 0.0 0.00 0.00 0.00 85 1023.4
20180624161152 29 67 0.0 0.0 0.00 0.00 0.00 85 1023.3
20180624160150 29 67 0.0 0.0 0.00 0.00 0.00 84 1023.3
20180624155148 29 67 0.0 0.0 0.00 0.00 0.00 84 1023.3
20180624154146 28 67 0.0 0.0 0.00 0.00 0.00 84 1023.3
20180624153144 28 67 0.0 0.0 0.00 0.00 0.00 83 1023.2
20180624152142 29 67 0.0 0.0 0.00 0.00 0.00 82 1023.2
20180624151140 29 67 0.0 0.0 0.00 0.00 0.00 82 1023.2
20180624150138 30 67 0.0 0.0 0.00 0.00 0.00 83 1023.2
20180624145136 30 67 0.0 0.0 0.00 0.00 0.00 82 1023.2
20180624144134 30 67 0.0 0.0 0.00 0.00 0.00 81 1023.5
20180624143131 30 67 0.0 0.0 0.00 0.00 0.00 82 1023.5
20180624142130 30 67 0.0 0.0 0.00 0.00 0.00 82 1023.5
20180624141127 30 67 0.0 0.0 0.00 0.00 0.00 81 1023.5
20180624140126 30 67 0.0 0.0 0.00 0.00 0.00 81 1023.5
20180624135123 31 67 0.0 0.0 0.00 0.00 0.00 81 1023.5
20180624134121 31 67 0.0 0.0 0.00 0.00 0.00 81 1023.5
20180624133119 31 67 0.0 0.0 0.00 0.00 0.00 80 1023.5
20180624132117 31 67 0.0 0.0 0.00 0.00 0.00 80 1023.4
20180624131114 31 67 0.0 0.0 0.00 0.00 0.00 79 1023.4
20180624130112 32 67 0.0 0.0 0.00 0.00 0.00 78 1023.3
20180624125110 32 67 0.0 0.0 0.00 0.00 0.00 78 1023.3
20180624124108 33 67 0.0 0.0 0.00 0.00 0.00 78 1023.2
20180624123105 33 67 0.0 0.0 0.00 0.00 0.00 77 1022.8
20180624122104 33 67 0.0 0.0 0.00 0.00 0.00 77 1022.8
20180624121100 33 67 0.0 0.0 0.00 0.00 0.00 77 1022.8
20180624120058 34 67 0.0 0.0 0.00 0.00 0.00 75 1022.7
20180624115056 35 67 0.0 0.0 0.00 0.00 0.00 75 1022.7
20180624114054 34 90 0.0 0.0 0.00 0.00 0.00 75 1022.6
20180624113051 35 67 0.0 0.0 0.00 0.00 0.00 75 1022.2
20180624112049 35 67 0.0 0.0 0.00 0.00 0.00 74 1022.1
20180624111047 35 67 0.0 0.0 0.00 0.00 0.00 75 1022.0
20180624110045 35 67 0.0 0.0 0.00 0.00 0.00 75 1021.9
20180624105042 35 90 0.0 0.0 0.00 0.00 0.00 75 1021.8
20180624104040 35 112 0.0 0.0 0.00 0.00 0.00 76 1021.7
20180624103038 35 112 0.0 0.0 0.00 0.00 0.00 75 1021.6
20180624102036 35 112 0.0 0.0 0.00 0.00 0.00 75 1021.5
20180624101034 35 112 0.0 0.0 0.00 0.00 0.00 74 1021.5
20180624100033 36 112 0.0 0.0 0.00 0.00 0.00 74 1021.1
20180624095031 36 112 0.0 0.0 0.00 0.00 0.00 73 1021.1
20180624094029 37 22 0.0 0.0 0.00 0.00 0.00 72 1021.2
20180624093026 37 22 0.0 0.0 0.00 0.00 0.00 72 1020.9
20180624092026 38 22 0.0 0.0 0.00 0.00 0.00 69 1021.0
20180624091023 39 22 0.0 1.0 0.00 0.00 0.00 68 1021.1
20180624090021 39 22 1.0 3.0 0.00 0.00 0.00 68 1020.7
20180624085019 39 22 3.0 3.0 0.00 0.00 0.00 67 1020.7
20180624084017 39 22 0.0 0.0 0.00 0.00 0.00 65 1020.8
20180624083015 40 112 0.0 0.0 0.00 0.00 0.00 62 1020.9
20180624082013 42 337 0.0 6.0 0.00 0.00 0.00 59 1020.7
20180624081011 43 337 3.0 5.0 0.00 0.00 0.00 58 1020.8
20180624080009 43 294 4.0 5.0 0.00 0.00 0.00 57 1020.5
20180624075006 43 346 4.0 6.0 0.00 0.00 0.00 56 1020.5
20180624074005 43 337 3.0 4.0 0.00 0.00 0.00 56 1020.2
20180624073003 44 337 4.0 4.0 0.00 0.00 0.00 55 1020.2
20180624072001 44 315 2.0 3.0 0.00 0.00 0.00 56 1020.3
20180624070959 45 315 1.0 2.0 0.00 0.00 0.00 53 1020.4
20180624065957 46 315 1.0 1.0 0.00 0.00 0.00 52 1020.0
20180624064955 47 292 0.0 4.0 0.00 0.00 0.00 50 1020.1
20180624063953 47 270 1.0 3.0 0.00 0.00 0.00 52 1020.1
20180624062950 48 285 2.0 4.0 0.00 0.00 0.00 50 1019.9
20180624061948 49 304 1.0 5.0 0.00 0.00 0.00 50 1019.9
20180624060946 49 336 3.0 7.0 0.00 0.00 0.00 47 1020.0
20180624055944 50 315 3.0 6.0 0.00 0.00 0.00 46 1020.1
20180624054942 51 354 6.0 7.0 0.00 0.00 0.00 44 1020.1
20180624053939 51 333 3.0 9.0 0.00 0.00 0.00 42 1020.1
20180624052937 51 315 9.0 9.0 0.00 0.00 0.00 42 1019.9
20180624051935 52 0 4.0 4.0 0.00 0.00 0.00 38 1019.9
20180624050933 52 337 3.0 4.0 0.00 0.00 0.00 37 1019.9
20180624045931 52 202 0.0 4.0 0.00 0.00 0.00 38 1020.0
20180624044929 52 180 4.0 4.0 0.00 0.00 0.00 38 1020.0
20180624043926 52 90 3.0 6.0 0.00 0.00 0.00 36 1020.0
20180624042924 52 337 6.0 6.0 0.00 0.00 0.00 37 1020.0
20180624041922 53 157 3.0 3.0 0.00 0.00 0.00 39 1020.0
20180624040920 52 202 2.0 8.0 0.00 0.00 0.00 37 1020.0
20180624035918 52 189 4.0 5.0 0.00 0.00 0.00 38 1020.0
20180624034916 52 0 3.0 3.0 0.00 0.00 0.00 33 1019.9
20180624033914 52 202 1.0 5.0 0.00 0.00 0.00 41 1020.3
20180624032912 51 183 1.0 2.0 0.00 0.00 0.00 40 1020.2
20180624031910 51 135 4.0 4.0 0.00 0.00 0.00 42 1020.2
20180624030908 50 22 3.0 3.0 0.00 0.00 0.00 41 1020.5
20180624025906 50 104 1.0 4.0 0.00 0.00 0.00 45 1020.5
20180624024904 50 227 3.0 5.0 0.00 0.00 0.00 47 1020.8
20180624023902 49 45 4.0 5.0 0.00 0.00 0.00 48 1020.8